Location: Atherton
(17.2661°S, 145.4859°E)
Time: 06:36:32
(UTC+10:00)

Vanguard 2 Rocket - Visible Passes

Search period start: 18 June 2025 00:00
Search period end: 28 June 2025 00:00
Orbit: 554 x 3292 km, 32.9° (Epoch: 17 June)

Date Brightness Start Highest point End Pass type
(mag) Time Alt. Az. Time Alt. Az. Time Alt. Az.
18 Jun 11.0 00:26:40 10° NW 00:26:56 11° NW 00:26:56 11° NW visible
18 Jun 9.8 03:10:11 12° SE 03:10:11 12° SE 03:10:43 10° SE visible
18 Jun 8.6 05:15:36 22° SSW 05:17:45 24° S 05:22:47 10° SE visible
18 Jun 10.3 21:06:32 10° NNW 21:20:42 26° NNE 21:20:42 26° NNE visible
18 Jun 10.6 23:19:57 10° NW 23:26:05 25° NW 23:26:05 25° NW visible
19 Jun 8.9 04:15:09 27° S 04:15:09 27° S 04:19:20 10° SE visible
19 Jun 8.3 06:22:17 10° SW 06:28:13 24° S 06:32:23 10° ESE visible
19 Jun 10.6 20:03:48 10° N 20:14:32 17° NE 20:19:54 15° NE visible
19 Jun 10.2 22:14:09 10° NNW 22:25:17 36° N 22:25:17 36° N visible
20 Jun 9.7 03:14:41 15° SE 03:14:41 15° SE 03:15:50 10° SE visible
20 Jun 8.6 05:20:06 20° SW 05:23:24 26° S 05:28:33 10° SE visible
20 Jun 10.1 21:09:19 10° NNW 21:24:32 36° NNE 21:24:32 36° NNE visible
20 Jun 10.6 23:23:59 10° NW 23:29:56 25° NW 23:29:56 25° NW visible
21 Jun 8.9 04:19:37 29° S 04:19:37 29° S 04:24:51 10° SE visible
21 Jun 10.3 20:05:41 10° N 20:19:29 25° NE 20:23:51 23° NE visible
21 Jun 10.1 22:17:49 10° NW 22:29:14 42° NNW 22:29:14 42° NNW visible
22 Jun 9.6 03:19:07 19° SE 03:19:07 19° SE 03:21:08 10° SE visible
22 Jun 8.5 05:24:32 20° SW 05:29:05 30° S 05:34:26 10° ESE visible
22 Jun 10.7 19:04:12 10° NNE 19:12:47 15° NE 19:21:58 10° ENE visible
22 Jun 9.8 21:12:37 10° NNW 21:28:36 46° NNE 21:28:36 46° NNE visible
22 Jun 10.6 23:28:23 10° WNW 23:33:59 24° WNW 23:33:59 24° WNW visible
23 Jun 8.8 04:24:02 31° S 04:24:02 31° S 04:30:33 10° ESE visible
23 Jun 10.1 20:08:28 10° NNW 20:24:04 34° NE 20:27:59 32° ENE visible
23 Jun 10.0 22:21:52 10° NW 22:33:23 45° NW 22:33:23 45° NW visible
24 Jun 9.5 03:23:31 23° SE 03:23:31 23° SE 03:26:36 10° SE visible
24 Jun 8.2 05:28:56 20° SW 05:34:41 38° S 05:40:19 10° E visible
24 Jun 10.4 19:05:41 10° N 19:17:36 22° NE 19:27:25 15° ENE visible
24 Jun 9.6 21:16:21 10° NW 21:32:50 58° NNE 21:32:50 58° NNE visible
24 Jun 10.7 23:33:09 10° WNW 23:38:14 23° WNW 23:38:14 23° WNW visible
25 Jun 8.7 04:28:26 35° S 04:29:31 35° S 04:36:22 10° ESE visible
25 Jun 10.7 18:06:24 10° NNE 18:11:18 12° NE 18:16:36 10° ENE visible
25 Jun 9.8 20:11:50 10° NNW 20:28:24 44° NE 20:32:19 41° ENE visible
25 Jun 10.0 22:26:17 10° WNW 22:37:43 46° WNW 22:37:43 46° WNW visible
26 Jun 9.3 03:27:56 28° SE 03:27:56 28° SE 03:32:15 10° ESE visible
26 Jun 7.9 05:33:21 20° SW 05:40:11 51° SSE 05:46:00 10° E visible
26 Jun 10.2 19:08:24 10° NNW 19:22:02 30° NE 19:31:50 21° E visible
26 Jun 9.5 21:20:27 10° NW 21:37:15 70° N 21:37:15 70° N visible
26 Jun 10.7 23:38:16 10° WNW 23:42:39 20° W 23:42:39 20° W visible
27 Jun 10.2 02:27:27 12° ESE 02:27:27 12° ESE 02:27:58 10° ESE visible
27 Jun 8.5 04:32:52 38° SSW 04:35:08 43° S 04:42:09 10° E visible
27 Jun 10.5 18:06:36 10° N 18:16:02 18° NE 18:27:13 10° E visible
27 Jun 9.6 20:15:37 10° NW 20:32:36 57° NE 20:36:47 51° ENE visible
27 Jun 10.0 22:31:03 10° WNW 22:42:12 45° WNW 22:42:12 45° WNW visible
